Powrót do katalogu

STARLINK-6344

AktywnyŁącznośćVLEO
NORAD 56520·PAYLOAD·🇺🇸 United States

Wystrzelony May 14, 2023 z Cape Canaveral Space Force Station

Loading…

Następne Przeloty (najbliższe 24 godziny)

TLE

ŚwieżeSource: CelesTrak SupGP

Epoka: Sep 15, 2026, 01:29 UTC

1 56520C 23065T   26258.06229167 -.00022082  00000+0 -79995-3 0  2585
2 56520  43.0010 223.0520 0000695 264.0306   8.8185 15.27583921    17

Śledź STARLINK-6344 w czasie rzeczywistym z AllMySat

Download on the App Store